Vertical_Velocity
-1 -1 -1 -1 -1 -0 -0 -1 -1 -1 -1 0 1 1 2 3 2 2 1 2 2 3 4 4 5 5 4 4 3 3 2 1 0 -0 -0 -0 -0 -0 -0 -0 0 1 1 1 1 1 2 2 2 3 3 3 3 2 2 1 -0 -0 0 1 1 1 1 1 1 2 2 1 -1
-1 -1 -1 -1 -1 -1 -1 -1 -1 -1 -1 -1 0 1 1 2 2 2 1 1 1 2 3 4 4 5 5 4 4 4 3 2 1 1 -0 -0 -1 -0 -0 0 0 0 1 1 1 1 2 2 2 3 3 3 3 3 2 2 2 2 2 1 0 1 2 1 1 1 2 -0 0
-1 -1 -1 -1 -1 -1 -1 -1 -1 -1 -1 -1 -1 0 1 1 2 2 2 1 1 1 2 3 3 4 5 4 4 4 3 3 2 2 1 -0 -1 -1 -0 0 0 0 0 1 1 1 2 2 2 2 3 3 3 3 3 3 3 3 2 2 2 2 2 -1 0 2 2 -0 0
-1 -2 -2 -2 -2 -2 -1 -1 -1 -1 -0 -0 -1 -0 -0 0 1 2 2 1 1 1 1 2 3 4 5 5 4 3 3 3 3 2 2 1 -0 -0 -0 0 0 0 -0 0 1 1 1 2 2 2 3 3 3 3 3 3 3 3 3 3 3 1 -0 -1 1 2 1 -1 -0
-1 -2 -2 -2 -2 -2 -2 -1 -1 -1 -1 -1 -1 -1 -1 -0 0 1 1 2 2 1 1 1 2 3 4 5 5 4 3 2 2 3 2 2 1 0 0 0 0 -0 -0 -0 0 0 1 2 2 3 3 2 2 2 2 3 3 3 3 4 2 1 0 1 2 1 -1 -1 0
-2 -2 -2 -2 -2 -2 -2 -2 -1 -1 -1 -1 -1 -1 -1 -1 -0 0 1 1 1 1 1 1 1 2 3 4 4 4 3 2 2 2 3 3 2 2 1 1 0 -0 -0 -0 -0 0 1 2 2 2 2 2 2 2 2 2 2 3 3 3 2 2 2 2 1 1 0 0 1
-2 -2 -2 -3 -3 -3 -3 -3 -2 -2 -2 -1 -1 -2 -2 -2 -1 -0 -0 0 1 1 2 2 1 2 2 3 4 4 3 3 2 2 2 3 3 2 2 1 0 -0 -0 -1 -0 -0 0 1 2 2 2 2 2 2 2 2 3 3 3 2 3 3 3 2 2 2 2 1 1
-2 -2 -2 -2 -3 -3 -3 -3 -3 -3 -2 -2 -2 -2 -2 -2 -1 -1 -1 -1 -0 0 1 2 2 1 1 2 3 3 3 3 3 2 2 3 3 3 2 1 1 -0 -1 -1 -0 -0 0 1 1 1 1 2 2 2 2 2 2 3 3 3 3 3 2 2 3 2 1 1 1
-3 -2 -2 -2 -2 -3 -3 -3 -3 -3 -3 -3 -2 -2 -2 -2 -2 -1 -1 -1 -1 -0 0 1 1 1 1 1 1 2 2 3 3 3 3 3 3 3 2 2 1 0 -0 -0 0 0 1 1 1 1 1 1 2 1 1 2 2 2 2 3 2 2 2 3 2 2 1 2 1
-2 -2 -2 -2 -2 -2 -2 -3 -3 -3 -3 -3 -3 -3 -3 -3 -3 -2 -2 -1 -1 -1 -1 -0 1 1 1 0 -0 0 1 2 3 3 3 3 3 3 3 2 1 1 0 0 1 1 1 1 1 0 1 1 2 1 1 2 2 2 2 2 2 2 2 2 2 2 2 2 1
-2 -2 -2 -2 -2 -2 -2 -2 -3 -3 -3 -2 -3 -3 -3 -3 -3 -3 -2 -2 -1 -1 -1 -1 -0 1 1 0 -0 -1 -1 0 2 3 3 3 3 3 3 2 1 1 1 1 2 2 2 1 0 0 0 1 2 2 1 1 1 1 1 1 1 2 1 1 1 2 2 1 1
-3 -3 -2 -2 -2 -2 -2 -2 -2 -2 -2 -2 -2 -2 -2 -3 -3 -3 -3 -2 -2 -2 -2 -2 -1 -0 -0 0 -0 -1 -1 -1 0 2 3 3 3 4 4 3 2 1 1 1 2 2 2 1 0 -0 0 1 1 1 1 1 1 1 1 1 1 1 1 1 1 1 1 1 1
-2 -3 -3 -3 -2 -2 -2 -1 -1 -2 -2 -2 -2 -2 -2 -2 -2 -2 -2 -2 -2 -2 -2 -2 -2 -1 -1 -0 -1 -1 -2 -2 -1 1 2 3 3 4 4 4 3 2 1 1 2 2 2 0 -0 -0 0 0 1 1 1 1 1 1 1 1 1 2 1 1 1 1 1 1 1
-3 -3 -3 -3 -2 -2 -2 -1 -1 -1 -1 -1 -1 -1 -1 -1 -2 -2 -2 -2 -2 -2 -2 -2 -2 -2 -1 -1 -1 -1 -2 -2 -1 -0 1 2 3 4 4 4 3 2 1 1 2 2 1 -0 -0 -0 0 0 1 1 1 1 1 1 1 1 2 2 2 1 1 1 1 2 2
-2 -3 -3 -3 -3 -2 -2 -1 -1 -1 -1 -1 -1 -1 -1 -1 -1 -2 -2 -1 -2 -2 -2 -2 -2 -2 -2 -1 -1 -1 -2 -2 -2 -1 -0 1 2 3 4 3 2 1 1 1 2 2 1 -1 -1 -0 0 1 1 1 1 2 2 2 2 2 2 2 2 2 2 2 2 2 2
-2 -2 -2 -2 -3 -3 -2 -2 -1 -1 -1 -1 -1 -1 -1 -1 -1 -1 -1 -1 -1 -2 -2 -2 -2 -1 -1 -1 -1 -1 -2 -2 -2 -2 -1 0 1 2 3 2 1 0 0 1 2 2 0 -1 -1 0 1 1 1 1 1 2 2 2 2 2 2 2 2 2 2 2 2 2 2
-2 -2 -2 -2 -2 -2 -3 -2 -2 -1 -1 -1 -1 -1 -1 -1 -1 -1 -1 -2 -2 -1 -1 -2 -1 -1 -1 -1 -1 -1 -2 -2 -2 -2 -1 -0 1 2 2 1 -0 -1 -1 1 2 1 0 -1 -0 0 1 1 1 1 2 2 2 2 2 2 3 3 3 3 3 3 2 2 2
-1 -2 -2 -2 -2 -2 -2 -2 -2 -2 -1 -1 -1 -1 -2 -1 -1 -1 -2 -2 -2 -1 -1 -1 -1 -1 -1 -1 -1 -1 -1 -1 -2 -2 -1 -0 1 1 1 0 -1 -2 -2 -1 1 1 0 -0 0 1 1 2 2 2 2 2 2 2 2 3 3 3 3 3 3 3 3 2 2
-1 -2 -2 -2 -2 -2 -2 -2 -2 -1 -1 -1 -1 -1 -2 -2 -1 -2 -2 -3 -2 -1 -1 -1 -1 -1 -1 -1 -1 -2 -2 -1 -1 -1 -1 -1 0 1 0 -1 -2 -4 -4 -3 -1 1 2 3 2 2 2 2 2 2 2 2 2 2 2 2 3 3 3 4 3 3 3 2 2
-1 -1 -1 -1 -1 -1 -2 -2 -1 -1 -1 -1 -1 -1 -1 -2 -2 -2 -2 -3 -2 -2 -1 -1 -1 -1 -1 -0 -1 -1 -2 -1 -1 -1 -1 -1 -0 -0 -0 -1 -3 -5 -5 -5 -1 3 5 5 4 3 2 2 3 3 3 3 2 2 2 2 3 3 3 3 3 3 3 2 2
-1 -1 -1 -1 -1 -1 -1 -2 -1 -1 -1 -1 -1 -1 -1 -2 -2 -3 -3 -3 -2 -1 -1 -1 -1 -1 -0 -0 -0 -1 -1 -2 -1 -1 -0 -0 -0 -1 -1 -2 -3 -5 -6 -4 0 4 7 7 5 3 2 2 3 3 3 3 3 3 2 2 2 3 3 3 3 3 3 3 2
-1 -1 -1 -1 -1 -1 -1 -2 -2 -2 -1 -1 -1 -1 -1 -2 -2 -3 -3 -3 -2 -1 -1 -1 -1 -1 -1 -0 0 -0 -1 -1 -1 -0 -0 0 -0 -1 -2 -2 -3 -4 -5 -3 1 4 6 7 5 3 2 2 3 3 4 4 4 3 3 2 2 2 2 2 2 3 3 3 2
-1 -1 -1 -1 -1 -2 -2 -2 -2 -2 -1 -1 -1 -1 -1 -1 -2 -2 -3 -3 -2 -2 -1 -1 -1 -1 -1 -1 -0 0 0 -0 -1 -0 0 0 -0 -1 -2 -2 -2 -3 -4 -3 0 2 5 6 5 4 3 3 3 4 4 4 4 4 3 3 2 2 2 2 2 2 2 2 2
-1 -2 -2 -2 -2 -2 -2 -2 -2 -2 -1 -1 -1 -1 -1 -1 -1 -2 -2 -3 -2 -2 -1 -1 -1 -1 -1 -1 -1 0 1 1 0 -0 0 1 0 -0 -1 -2 -2 -2 -3 -2 -1 0 3 5 6 5 4 3 3 3 3 4 4 4 3 3 2 2 1 1 2 2 2 2 2
-2 -2 -3 -3 -3 -2 -2 -2 -2 -2 -1 -1 -1 -1 -1 -1 -1 -1 -2 -2 -2 -1 -1 -1 -1 -1 -1 -2 -1 -0 0 1 1 1 0 0 0 -0 -1 -2 -2 -2 -2 -3 -3 -1 2 6 7 6 5 4 4 3 3 3 4 4 3 3 2 1 1 1 2 2 2 2 1
-2 -3 -3 -3 -3 -3 -3 -2 -2 -2 -2 -2 -2 -2 -2 -1 -1 -1 -1 -1 -1 -1 -1 -1 -1 -1 -1 -2 -1 -1 -0 1 1 1 1 1 -0 -1 -1 -2 -2 -2 -2 -3 -4 -1 3 7 6 6 5 5 4 3 2 3 3 3 3 2 2 2 1 2 2 2 2 1 1
-3 -3 -3 -3 -3 -3 -2 -2 -2 -2 -2 -2 -2 -2 -2 -1 -1 -1 -1 -1 -1 -0 -0 -1 -1 -1 -1 -1 -1 -1 -0 0 1 2 2 1 0 -0 -1 -1 -2 -2 -3 -4 -3 1 5 6 4 4 5 5 4 3 2 2 3 3 3 3 2 2 2 2 1 1 1 1 1
-3 -3 -3 -3 -3 -2 -2 -2 -3 -3 -2 -2 -1 -1 -1 -1 -1 -1 -1 -1 -0 -0 -0 -0 -0 -0 -0 -1 -1 -0 -0 0 1 2 2 2 1 0 -1 -1 -1 -2 -3 -3 -0 3 5 3 1 1 4 5 5 3 2 2 3 3 3 3 2 2 2 1 1 1 0 1 1
-2 -2 -3 -3 -2 -2 -2 -2 -2 -2 -2 -1 -1 -1 -2 -2 -1 -1 -1 -0 -0 0 0 -0 -0 -1 -0 -0 -0 0 0 1 1 2 2 2 1 0 -1 -1 -1 -2 -2 -2 2 5 4 -1 -1 1 4 7 6 5 3 3 3 3 3 3 2 2 2 2 1 0 0 0 1
-2 -2 -2 -2 -2 -2 -2 -2 -2 -2 -2 -2 -2 -2 -2 -2 -2 -1 -1 -0 0 1 1 0 -1 -1 -1 -1 -1 -0 0 1 2 2 2 2 1 0 -1 -1 -1 -1 -1 0 3 5 3 -3 -2 0 4 8 7 6 5 4 4 4 3 3 2 2 2 2 1 0 -0 0 1
-2 -2 -2 -2 -2 -2 -2 -1 -2 -2 -2 -2 -2 -2 -2 -2 -3 -2 -1 -0 1 1 1 0 -0 -1 -2 -2 -2 -1 -0 1 1 2 2 2 1 0 -0 -1 -1 -1 -1 1 4 5 3 -3 -3 -1 3 8 7 6 5 4 4 3 3 2 1 1 1 1 1 0 -0 -0 0
-2 -2 -2 -2 -1 -1 -1 -1 -1 -1 -2 -2 -2 -2 -2 -2 -2 -3 -2 -1 -0 0 1 0 -0 -1 -1 -2 -2 -1 -1 0 1 2 2 2 1 0 -0 -0 -0 -1 -0 1 4 4 3 -3 -4 -2 2 8 7 6 5 5 4 3 2 1 0 -0 0 1 1 1 -0 -0 -0
-1 -1 -1 -1 -1 -1 -1 -1 -1 -1 -1 -1 -2 -2 -2 -2 -3 -3 -4 -3 -2 -0 1 1 0 -0 -0 -1 -1 -1 -1 0 1 2 2 2 2 1 1 0 0 -0 -0 1 3 3 2 -1 -4 -3 1 7 7 7 6 5 5 4 2 0 -1 -1 0 2 2 2 1 0 0
-0 -0 -0 -1 -1 -1 -1 -1 -1 -1 -1 -1 -1 -2 -2 -2 -3 -3 -4 -4 -3 -1 0 1 1 -0 -0 -0 0 -0 -0 -0 0 1 2 2 2 2 2 1 0 -0 -0 0 2 4 4 3 -3 -3 0 6 7 7 6 6 6 4 2 -1 -3 -2 1 3 4 4 3 2 1
0 0 0 -0 -0 -0 -1 -1 -1 -1 -1 -1 -1 -2 -2 -2 -2 -2 -3 -4 -3 -3 -1 -0 -0 -1 -1 -1 0 0 -0 -1 -0 1 1 2 3 3 2 2 1 -0 -0 0 2 5 5 2 -5 -5 -2 5 6 6 6 6 6 5 2 -2 -3 -1 2 4 5 5 5 5 3
-0 1 1 1 1 0 -0 -0 -0 -1 -1 -1 -1 -2 -2 -2 -2 -2 -2 -3 -3 -3 -2 -1 -1 -1 -1 -1 0 1 1 -0 -1 -0 1 2 3 3 3 2 1 1 1 1 3 4 3 -3 -7 -6 -2 4 5 6 6 6 6 4 1 -3 -3 -0 3 5 5 6 6 5 3
-0 0 1 1 1 1 1 1 0 0 -0 -1 -1 -2 -2 -2 -2 -2 -2 -2 -3 -2 -2 -1 -1 -1 -1 -1 0 1 2 1 0 -0 0 2 3 3 3 2 2 1 1 1 3 3 1 -4 -7 -5 -0 4 5 5 6 6 6 4 1 -3 -2 1 4 5 4 4 4 3 1
-1 -0 0 1 1 1 1 1 0 0 -0 -0 -1 -1 -2 -2 -2 -3 -3 -2 -2 -2 -1 -1 -0 -0 -1 -1 0 2 3 3 1 0 0 1 2 3 3 3 2 2 2 2 2 1 -0 -3 -5 -3 -0 4 5 5 5 5 6 4 2 -2 -1 1 3 3 3 3 3 3 1
-1 -1 -1 -1 -1 -0 0 -0 -0 -1 -1 -1 -1 -2 -2 -3 -3 -3 -3 -2 -2 -1 -1 -0 -0 -0 -1 -1 -0 1 3 4 3 2 1 0 1 2 3 3 3 3 2 2 1 1 -0 -1 -4 -4 -2 2 4 4 5 5 5 4 2 -0 -1 0 2 3 3 3 3 4 3
-2 -2 -2 -2 -2 -2 -1 -1 -1 -1 -2 -2 -2 -2 -2 -2 -2 -3 -3 -3 -2 -2 -1 -0 0 0 -0 -1 -1 1 2 4 4 3 2 0 1 2 3 3 3 3 3 2 1 1 0 -2 -4 -5 -3 1 3 5 5 5 5 5 3 1 0 1 2 2 3 3 3 4 4
-3 -3 -3 -2 -2 -2 -2 -1 -1 -1 -2 -2 -2 -2 -1 -1 -1 -2 -2 -2 -2 -2 -1 -0 0 0 -0 -1 -1 0 2 4 5 5 3 1 1 1 2 3 3 3 3 2 2 1 0 -1 -3 -3 -2 1 3 5 5 5 5 5 4 3 1 1 2 2 2 2 3 4 4
Height
5511 5509 5506 5504 5502 5500 5498 5496 5494 5492 5491 5489 5488 5486 5485 5484 5483 5482 5481 5481 5480 5480 5479 5479 5478 5478 5477 5476 5476 5475 5474 5473 5471 5471 5470 5469 5468 5467 5467 5466 5466 5466 5466 5466 5466 5466 5466 5467 5467 5468 5469 5470 5471 5473 5474 5476 5478 5480 5482 5485 5487 5489 5491 5494 5496 5498 5501 5503 5506
5508 5505 5502 5500 5498 5496 5494 5491 5490 5488 5486 5485 5483 5481 5480 5479 5478 5477 5476 5476 5475 5474 5474 5474 5473 5473 5472 5472 5471 5471 5470 5469 5469 5468 5467 5466 5465 5465 5464 5464 5463 5463 5463 5463 5463 5464 5464 5464 5465 5466 5466 5467 5468 5470 5471 5472 5474 5476 5478 5481 5482 5484 5486 5489 5491 5493 5495 5498 5500
5504 5501 5499 5496 5494 5492 5490 5487 5486 5484 5482 5480 5478 5477 5476 5474 5473 5472 5471 5470 5470 5469 5469 5469 5468 5468 5468 5467 5467 5467 5466 5466 5465 5465 5464 5463 5462 5462 5461 5461 5461 5461 5461 5461 5461 5461 5461 5462 5462 5463 5464 5464 5465 5466 5468 5469 5471 5473 5475 5476 5478 5480 5482 5484 5486 5488 5490 5492 5495
5501 5498 5496 5493 5491 5488 5486 5484 5481 5480 5478 5476 5474 5472 5471 5470 5468 5467 5466 5466 5465 5464 5464 5463 5463 5463 5463 5463 5462 5462 5462 5462 5461 5461 5461 5460 5460 5459 5459 5458 5458 5458 5458 5458 5458 5458 5459 5459 5460 5460 5461 5461 5462 5464 5465 5466 5467 5469 5471 5472 5474 5476 5478 5480 5481 5483 5485 5487 5489
5497 5495 5492 5490 5487 5485 5482 5480 5478 5476 5474 5472 5470 5468 5466 5465 5464 5462 5461 5461 5460 5459 5459 5458 5458 5458 5458 5458 5457 5457 5457 5457 5457 5457 5457 5457 5457 5456 5456 5456 5456 5456 5455 5455 5455 5456 5456 5456 5457 5457 5458 5459 5460 5461 5462 5463 5465 5466 5467 5468 5470 5472 5474 5476 5477 5479 5481 5483 5485
5495 5492 5489 5486 5484 5481 5479 5476 5474 5472 5470 5468 5466 5464 5462 5461 5459 5458 5457 5456 5455 5454 5454 5453 5453 5453 5453 5452 5452 5452 5453 5453 5453 5453 5453 5453 5453 5453 5453 5453 5453 5452 5452 5452 5452 5453 5453 5453 5454 5455 5455 5456 5457 5457 5459 5460 5461 5463 5464 5465 5467 5468 5470 5472 5474 5476 5477 5479 5481
5492 5489 5486 5484 5481 5478 5476 5473 5471 5469 5466 5464 5462 5460 5458 5457 5455 5454 5452 5451 5451 5450 5449 5448 5448 5448 5447 5447 5447 5447 5448 5448 5448 5449 5449 5449 5450 5450 5450 5450 5450 5450 5450 5450 5450 5450 5450 5451 5451 5452 5452 5453 5454 5455 5456 5457 5458 5460 5461 5462 5463 5465 5466 5468 5470 5471 5473 5475 5477
5489 5486 5484 5481 5478 5476 5473 5470 5468 5465 5463 5461 5459 5457 5455 5453 5451 5450 5448 5447 5446 5445 5444 5444 5443 5442 5442 5442 5442 5442 5442 5443 5443 5444 5444 5445 5445 5446 5446 5446 5446 5446 5446 5447 5447 5447 5447 5448 5448 5449 5450 5451 5451 5452 5453 5454 5455 5456 5458 5459 5460 5462 5463 5464 5466 5468 5469 5471 5472
5487 5484 5481 5478 5476 5473 5470 5467 5465 5462 5460 5457 5455 5453 5451 5449 5447 5446 5444 5443 5441 5441 5440 5439 5438 5438 5437 5437 5437 5437 5437 5438 5438 5439 5440 5440 5441 5441 5442 5442 5442 5443 5443 5444 5444 5444 5445 5445 5446 5446 5447 5448 5448 5449 5450 5451 5452 5454 5455 5456 5457 5459 5460 5461 5462 5464 5466 5467 5468
5485 5482 5479 5476 5473 5470 5467 5465 5462 5459 5457 5454 5452 5450 5447 5445 5443 5442 5440 5439 5437 5436 5435 5434 5434 5433 5432 5432 5431 5431 5432 5432 5433 5434 5435 5435 5436 5437 5437 5438 5439 5439 5440 5440 5441 5441 5441 5442 5442 5443 5444 5445 5446 5446 5447 5448 5449 5451 5452 5453 5454 5455 5456 5458 5459 5460 5462 5463 5465
5482 5480 5476 5474 5471 5468 5465 5462 5459 5456 5454 5451 5449 5446 5444 5442 5440 5438 5436 5435 5433 5432 5431 5430 5429 5428 5428 5427 5427 5426 5426 5427 5428 5428 5429 5430 5431 5432 5433 5434 5434 5435 5436 5436 5437 5438 5438 5439 5439 5440 5441 5441 5442 5443 5444 5445 5446 5447 5449 5450 5451 5452 5453 5455 5456 5457 5458 5460 5461
5480 5477 5474 5471 5468 5465 5462 5459 5456 5454 5451 5448 5446 5443 5441 5438 5436 5434 5432 5431 5429 5428 5426 5425 5424 5424 5423 5422 5422 5421 5421 5421 5422 5423 5424 5425 5426 5427 5428 5429 5430 5431 5431 5432 5433 5434 5434 5435 5436 5436 5437 5438 5439 5440 5441 5442 5443 5444 5446 5447 5448 5449 5450 5451 5452 5454 5455 5456 5457
5477 5474 5471 5468 5465 5462 5459 5456 5454 5451 5448 5446 5443 5440 5438 5435 5433 5431 5429 5427 5425 5424 5422 5421 5420 5419 5418 5418 5417 5417 5416 5416 5417 5418 5419 5420 5421 5422 5423 5424 5425 5426 5427 5428 5429 5430 5431 5431 5432 5433 5434 5435 5436 5437 5438 5439 5440 5441 5442 5444 5445 5446 5447 5448 5449 5451 5452 5453 5454
5475 5471 5468 5465 5462 5459 5456 5453 5451 5448 5445 5442 5440 5437 5434 5432 5429 5427 5425 5423 5421 5420 5418 5417 5416 5415 5414 5413 5413 5412 5412 5412 5412 5412 5413 5414 5416 5416 5418 5419 5420 5421 5422 5423 5425 5426 5426 5427 5428 5429 5431 5431 5432 5434 5435 5436 5437 5438 5439 5440 5441 5443 5444 5445 5446 5447 5448 5450 5451
5472 5468 5465 5462 5459 5456 5453 5450 5447 5444 5441 5439 5436 5433 5431 5428 5426 5424 5421 5419 5417 5416 5414 5413 5412 5411 5410 5409 5408 5408 5407 5407 5407 5407 5408 5409 5410 5411 5412 5413 5414 5416 5417 5418 5420 5421 5422 5423 5424 5426 5427 5428 5429 5430 5431 5432 5433 5435 5436 5437 5438 5439 5441 5441 5443 5444 5445 5446 5447
5469 5465 5462 5459 5455 5452 5449 5446 5443 5441 5438 5435 5432 5430 5427 5425 5422 5420 5417 5416 5414 5412 5410 5409 5407 5406 5406 5405 5404 5403 5403 5402 5402 5403 5403 5404 5405 5406 5407 5408 5409 5410 5412 5413 5415 5416 5417 5418 5420 5421 5423 5424 5425 5426 5427 5429 5430 5431 5432 5433 5434 5436 5437 5438 5439 5440 5441 5442 5444
5466 5462 5459 5455 5452 5449 5446 5442 5439 5436 5434 5431 5428 5426 5423 5421 5418 5416 5414 5411 5410 5408 5406 5405 5403 5402 5401 5400 5400 5399 5399 5398 5398 5398 5398 5399 5400 5401 5401 5402 5403 5405 5406 5408 5410 5411 5412 5414 5416 5417 5419 5420 5421 5422 5424 5425 5426 5427 5428 5429 5431 5432 5433 5434 5436 5436 5438 5439 5440
5462 5459 5455 5452 5448 5445 5442 5439 5436 5432 5430 5427 5424 5421 5419 5416 5414 5412 5410 5407 5406 5404 5402 5401 5399 5398 5397 5396 5395 5395 5394 5394 5394 5394 5394 5394 5395 5395 5396 5397 5398 5399 5401 5403 5405 5406 5408 5410 5411 5413 5414 5416 5417 5418 5420 5421 5422 5423 5424 5426 5426 5428 5429 5430 5431 5433 5434 5435 5436
5459 5455 5451 5448 5445 5441 5438 5435 5432 5429 5426 5423 5420 5417 5415 5412 5410 5408 5406 5403 5401 5400 5398 5397 5395 5394 5393 5391 5391 5390 5390 5390 5389 5389 5389 5389 5390 5390 5391 5391 5392 5394 5396 5397 5400 5402 5404 5405 5407 5408 5410 5411 5413 5414 5415 5416 5418 5419 5420 5421 5422 5424 5425 5426 5427 5429 5430 5431 5432
5456 5452 5448 5445 5441 5438 5435 5431 5428 5425 5422 5419 5416 5414 5411 5408 5406 5404 5401 5400 5398 5396 5394 5393 5391 5390 5389 5387 5386 5386 5385 5385 5385 5385 5385 5385 5385 5385 5386 5386 5387 5388 5390 5392 5395 5397 5400 5401 5403 5404 5405 5407 5408 5410 5411 5412 5414 5415 5416 5417 5418 5420 5421 5422 5423 5425 5426 5427 5428
5452 5449 5445 5441 5438 5435 5431 5428 5425 5422 5419 5416 5413 5410 5407 5405 5402 5400 5398 5396 5394 5392 5390 5389 5387 5386 5385 5383 5382 5382 5381 5381 5381 5381 5380 5380 5380 5381 5381 5382 5382 5383 5385 5387 5390 5393 5395 5397 5398 5399 5400 5402 5404 5405 5406 5408 5409 5411 5412 5413 5414 5415 5416 5418 5419 5421 5422 5423 5424
5450 5446 5442 5439 5435 5432 5428 5425 5421 5418 5415 5412 5409 5406 5404 5401 5399 5396 5394 5392 5390 5388 5386 5385 5383 5382 5381 5380 5379 5378 5377 5376 5376 5376 5376 5376 5376 5376 5376 5377 5378 5379 5381 5383 5385 5387 5390 5392 5394 5395 5396 5397 5399 5401 5402 5403 5405 5406 5407 5409 5410 5411 5412 5414 5415 5416 5418 5419 5420
5447 5444 5440 5436 5432 5429 5425 5422 5418 5415 5412 5409 5406 5403 5401 5398 5395 5393 5391 5388 5386 5385 5383 5381 5380 5378 5377 5376 5375 5374 5373 5373 5372 5372 5372 5372 5372 5372 5372 5373 5374 5375 5376 5378 5380 5382 5384 5387 5390 5391 5392 5393 5394 5396 5397 5399 5400 5401 5403 5404 5406 5407 5408 5409 5411 5412 5414 5415 5416
5445 5441 5437 5434 5430 5426 5423 5419 5416 5412 5409 5406 5403 5400 5397 5395 5392 5390 5387 5385 5383 5381 5379 5377 5376 5374 5373 5372 5371 5370 5370 5369 5369 5368 5368 5368 5368 5368 5368 5368 5369 5370 5371 5373 5375 5377 5379 5382 5385 5387 5388 5388 5390 5391 5392 5394 5396 5397 5398 5400 5401 5402 5404 5405 5406 5408 5410 5411 5412
5443 5439 5435 5431 5428 5424 5421 5417 5413 5410 5406 5403 5400 5397 5394 5392 5389 5387 5384 5382 5380 5378 5376 5374 5373 5371 5370 5368 5367 5366 5366 5366 5365 5365 5364 5364 5364 5364 5364 5364 5365 5366 5367 5368 5370 5372 5375 5377 5381 5382 5383 5383 5385 5386 5388 5389 5391 5392 5394 5395 5396 5398 5399 5401 5402 5404 5406 5407 5408
5441 5437 5433 5429 5426 5422 5418 5415 5411 5408 5404 5401 5398 5395 5392 5389 5386 5384 5381 5379 5377 5375 5373 5371 5370 5368 5366 5365 5364 5363 5362 5362 5361 5361 5361 5360 5360 5360 5360 5360 5361 5361 5362 5363 5365 5367 5370 5373 5376 5377 5378 5379 5381 5382 5383 5385 5386 5387 5389 5391 5392 5394 5395 5397 5398 5400 5401 5403 5405
5439 5435 5431 5427 5424 5420 5416 5413 5409 5406 5402 5399 5396 5392 5389 5386 5384 5381 5379 5376 5374 5372 5370 5368 5366 5365 5363 5362 5361 5360 5359 5358 5358 5357 5357 5357 5356 5356 5356 5356 5356 5357 5358 5359 5361 5364 5366 5368 5370 5371 5372 5375 5376 5377 5379 5380 5381 5383 5385 5386 5388 5389 5391 5392 5394 5396 5397 5399 5401
5437 5433 5429 5426 5422 5418 5415 5411 5407 5404 5401 5397 5394 5391 5387 5384 5381 5379 5376 5374 5371 5370 5367 5366 5364 5362 5361 5359 5358 5357 5356 5355 5355 5354 5354 5353 5353 5352 5352 5352 5353 5353 5354 5356 5357 5360 5361 5363 5365 5365 5367 5371 5372 5373 5374 5376 5377 5379 5380 5382 5383 5385 5386 5388 5390 5392 5393 5395 5397
5435 5431 5427 5424 5420 5417 5413 5409 5406 5402 5399 5395 5392 5389 5385 5382 5379 5376 5374 5371 5369 5367 5365 5363 5361 5359 5357 5356 5355 5354 5353 5352 5351 5351 5350 5350 5350 5349 5349 5349 5349 5350 5351 5352 5354 5355 5357 5359 5358 5360 5363 5366 5368 5369 5371 5372 5373 5374 5376 5377 5379 5381 5382 5384 5386 5388 5390 5391 5393
5433 5429 5426 5422 5418 5415 5411 5408 5404 5401 5397 5393 5390 5387 5383 5380 5377 5374 5371 5369 5366 5364 5362 5360 5358 5356 5354 5353 5352 5351 5350 5349 5348 5348 5347 5347 5346 5346 5346 5345 5346 5346 5347 5348 5350 5351 5352 5355 5353 5355 5359 5361 5364 5365 5366 5368 5369 5370 5371 5373 5375 5376 5378 5380 5382 5384 5386 5387 5389
5431 5427 5424 5420 5417 5413 5410 5406 5402 5399 5395 5391 5388 5385 5381 5378 5375 5372 5369 5366 5364 5362 5359 5357 5355 5353 5351 5350 5349 5347 5347 5346 5345 5345 5344 5344 5343 5342 5342 5342 5342 5342 5343 5344 5346 5346 5348 5350 5349 5350 5354 5357 5359 5361 5362 5364 5365 5366 5367 5369 5371 5372 5374 5376 5378 5380 5382 5384 5386
5429 5426 5422 5418 5415 5411 5408 5404 5400 5397 5393 5389 5386 5382 5379 5376 5373 5369 5366 5364 5361 5359 5357 5355 5352 5351 5349 5347 5346 5345 5344 5343 5342 5342 5341 5341 5340 5339 5339 5339 5339 5339 5339 5340 5341 5342 5344 5346 5345 5346 5349 5352 5355 5356 5358 5360 5361 5362 5363 5365 5366 5368 5370 5373 5375 5377 5378 5380 5382
5428 5424 5420 5417 5413 5409 5406 5402 5398 5395 5391 5387 5384 5380 5377 5374 5370 5367 5364 5361 5358 5356 5354 5352 5350 5348 5346 5344 5343 5342 5341 5340 5339 5339 5338 5338 5337 5336 5336 5336 5335 5335 5336 5336 5337 5338 5340 5342 5341 5341 5344 5347 5350 5352 5354 5356 5357 5358 5359 5361 5362 5364 5366 5369 5372 5374 5375 5377 5378
5426 5422 5419 5415 5411 5407 5404 5400 5396 5393 5389 5386 5382 5378 5375 5371 5368 5365 5361 5358 5356 5353 5351 5349 5346 5345 5343 5341 5340 5339 5338 5337 5336 5336 5335 5335 5334 5333 5333 5332 5332 5332 5332 5333 5333 5335 5336 5338 5336 5336 5339 5343 5346 5348 5350 5351 5353 5354 5355 5356 5358 5360 5363 5366 5369 5371 5372 5374 5375
5425 5421 5417 5413 5409 5406 5402 5398 5394 5391 5387 5383 5380 5376 5372 5369 5365 5362 5359 5356 5352 5350 5348 5346 5343 5341 5339 5338 5337 5336 5335 5334 5333 5332 5332 5331 5331 5331 5330 5329 5329 5328 5329 5329 5330 5332 5333 5332 5331 5332 5335 5338 5341 5343 5346 5347 5349 5350 5351 5352 5354 5357 5361 5364 5366 5368 5370 5371 5372
5423 5419 5416 5412 5408 5404 5400 5396 5392 5389 5385 5381 5377 5374 5370 5366 5363 5359 5356 5353 5350 5347 5344 5342 5340 5338 5336 5335 5334 5333 5332 5331 5330 5329 5328 5328 5328 5327 5327 5326 5326 5325 5325 5326 5326 5328 5329 5327 5326 5328 5331 5334 5337 5339 5341 5343 5345 5346 5346 5348 5351 5354 5357 5360 5362 5364 5366 5367 5369
5421 5418 5414 5410 5406 5402 5398 5394 5391 5387 5383 5379 5375 5371 5367 5364 5360 5356 5353 5350 5346 5344 5341 5339 5336 5334 5333 5331 5330 5330 5329 5328 5326 5326 5325 5325 5324 5324 5324 5323 5322 5322 5322 5322 5323 5324 5324 5323 5323 5325 5328 5330 5333 5335 5337 5339 5341 5341 5343 5344 5347 5350 5353 5355 5358 5360 5361 5363 5364
5420 5416 5412 5408 5404 5400 5396 5392 5388 5385 5381 5377 5373 5369 5365 5361 5357 5353 5349 5346 5343 5340 5337 5335 5333 5331 5329 5327 5327 5326 5326 5325 5324 5322 5322 5321 5321 5321 5321 5320 5320 5319 5319 5319 5320 5320 5321 5321 5320 5321 5324 5326 5328 5331 5333 5335 5336 5338 5339 5341 5343 5346 5349 5351 5353 5355 5357 5359 5361
5418 5414 5410 5406 5402 5398 5394 5390 5386 5382 5378 5374 5370 5366 5362 5358 5353 5350 5346 5342 5339 5336 5333 5331 5329 5327 5325 5324 5323 5322 5322 5322 5321 5320 5319 5318 5318 5317 5317 5317 5317 5316 5316 5316 5316 5317 5317 5318 5317 5317 5319 5322 5324 5327 5329 5331 5333 5334 5336 5337 5340 5342 5345 5347 5350 5352 5354 5356 5358
5416 5411 5407 5404 5400 5396 5392 5388 5384 5380 5376 5371 5367 5363 5359 5354 5350 5346 5341 5338 5334 5331 5329 5326 5324 5323 5321 5320 5319 5318 5318 5318 5318 5317 5316 5315 5314 5314 5314 5314 5314 5314 5313 5313 5313 5313 5314 5315 5314 5314 5316 5318 5321 5323 5326 5327 5329 5331 5332 5334 5336 5339 5341 5343 5346 5348 5350 5352 5355
5413 5410 5406 5401 5397 5393 5390 5386 5381 5377 5373 5368 5364 5360 5356 5351 5346 5342 5337 5333 5330 5326 5324 5321 5320 5318 5317 5316 5315 5315 5315 5315 5315 5314 5313 5312 5311 5311 5311 5311 5311 5311 5311 5310 5310 5311 5311 5311 5312 5312 5312 5314 5316 5319 5321 5324 5326 5327 5329 5331 5333 5335 5337 5340 5342 5344 5346 5349 5351